Weather History for Mayfld Grav Cnty AP, Mayfield, KY

Change the Weather History Date:

Saturday, May 17, 2014

  Actual Average (KPAH) Record (KPAH)
Temperature  
Mean Temperature 55 °F 67 °F  
Max Temperature 62 °F 78 °F 93 °F (1962)
Min Temperature 48 °F 57 °F 41 °F (1942)
Degree Days  
Heating Degree Days 10 2  
Month to date heating degree days 48  
Since 1 July heating degree days 4112  
Cooling Degree Days 0 4  
Month to date cooling degree days 50  
Year to date cooling degree days 92  
Growing Degree Days 5 (Base 50)    
Moisture  
Dew Point 42 °F    
Average Humidity 66    
Maximum Humidity 88    
Minimum Humidity 39    
Precipitation  
Precipitation 0.00 in 0.14 in 2.92 in (2002)
Month to date precipitation 2.91  
Year to date precipitation 19.19  
Snow  
Snow 0.00 in 0.00 in 0.00 in (2002)
Month to date snowfall 0.0  
Since 1 July snowfall 9.1  
Snow Depth -    
Sea Level Pressure  
Sea Level Pressure 30.18 in    
Wind  
Wind Speed 3 mph (ENE)    
Max Wind Speed 9 mph    
Max Gust Speed 9 mph    
Visibility 9 miles    
Events      
T = Trace of Precipitation, MM = Missing Value Source: NWS Daily Summary

Daily Weather History Graph

Daily Weather History Graph

Search for Another Location

Airport:

Trip Planner

Search our weather history database for the weather conditions in past years. The results will help you decide how hot, cold, wet, or windy it might be!

Date:

Astronomy

May. 17, 2014 Rise Set
Actual Time 5:45 AM CDT 7:56 PM CDT
Civil Twilight 5:16 AM CDT 8:25 PM CDT
Nautical Twilight 4:40 AM CDT 9:01 PM CDT
Astronomical Twilight 4:02 AM CDT 9:40 PM CDT
Moon 10:57 PM CDT (5/17) 8:27 AM CDT (5/17)
Length of Visible Light 15h 09m
Length of Day
14h 11m
Waning Gibbous, 89% of the Moon is Illuminated
May 17
Waning Gibbous
May 21
Last Quarter
May 28
New
Jun 5
First Quarter
Jun 12
Full

Hourly Weather History & Observations

Time (CDT) Temp. Dew Point Humidity Pressure Visibility Wind Dir Wind Speed Gust Speed Precip Events Conditions
12:15 AM 50.0 °F 44.6 °F 82% 30.14 in 10.0 mi Calm Calm - N/A   Overcast
12:35 AM 50.0 °F 46.4 °F 87% 30.14 in 10.0 mi Calm Calm - N/A   Overcast
12:55 AM 50.0 °F 44.6 °F 82% 30.14 in 10.0 mi NE 3.5 mph - N/A   Overcast
1:15 AM 51.8 °F 41.0 °F 67% 30.13 in 10.0 mi Calm Calm - N/A   Overcast
1:35 AM 50.0 °F 42.8 °F 76% 30.13 in 10.0 mi Calm Calm - N/A   Overcast
1:55 AM 50.0 °F 41.0 °F 71% 30.14 in 10.0 mi Calm Calm - N/A   Overcast
2:15 AM 50.0 °F 41.0 °F 71% 30.14 in 10.0 mi NE 4.6 mph - N/A   Overcast
2:35 AM 50.0 °F 41.0 °F 71% 30.14 in 10.0 mi NNE 4.6 mph - N/A   Overcast
2:55 AM 50.0 °F 42.8 °F 76% 30.14 in 10.0 mi NNE 4.6 mph - N/A   Overcast
3:15 AM 50.0 °F 42.8 °F 76% 30.14 in 10.0 mi NNE 5.8 mph - N/A   Overcast
3:35 AM 48.2 °F 42.8 °F 82% 30.15 in 10.0 mi NE 3.5 mph - N/A   Overcast
3:55 AM 48.2 °F 42.8 °F 82% 30.15 in 10.0 mi Calm Calm - N/A   Overcast
4:15 AM 48.2 °F 42.8 °F 82% 30.15 in 10.0 mi ENE 4.6 mph - N/A   Overcast
4:35 AM 48.2 °F 42.8 °F 82% 30.15 in 10.0 mi NE 3.5 mph - N/A   Overcast
4:55 AM 48.2 °F 42.8 °F 82% 30.15 in 10.0 mi ENE 3.5 mph - N/A   Overcast
5:15 AM 48.2 °F 42.8 °F 82% 30.14 in 10.0 mi ENE 4.6 mph - N/A   Overcast
5:35 AM 48.2 °F 42.8 °F 82% 30.14 in 10.0 mi Calm Calm - N/A   Overcast
5:55 AM 48.2 °F 42.8 °F 82% 30.15 in 10.0 mi Calm Calm - N/A   Overcast
6:15 AM 48.2 °F 42.8 °F 82% 30.16 in 10.0 mi NE 3.5 mph - N/A   Overcast
6:35 AM 48.2 °F 42.8 °F 82% 30.16 in 10.0 mi Calm Calm - N/A   Overcast
6:55 AM 48.2 °F 42.8 °F 82% 30.16 in 10.0 mi East 3.5 mph - N/A   Overcast
7:15 AM 48.2 °F 42.8 °F 82% 30.18 in 10.0 mi ENE 3.5 mph - N/A   Overcast
7:35 AM 48.2 °F 42.8 °F 82% 30.18 in 10.0 mi ENE 3.5 mph - N/A   Overcast
7:55 AM 50.0 °F 42.8 °F 76% 30.19 in 10.0 mi Calm Calm - N/A   Overcast
8:15 AM 50.0 °F 42.8 °F 76% 30.20 in 10.0 mi Calm Calm - N/A   Overcast
8:35 AM 50.0 °F 42.8 °F 76% 30.20 in 10.0 mi Calm Calm - N/A   Overcast
8:55 AM 51.8 °F 42.8 °F 71% 30.20 in 10.0 mi East 4.6 mph - N/A   Overcast
9:15 AM 51.8 °F 42.8 °F 71% 30.20 in 10.0 mi East 5.8 mph - N/A   Overcast
9:35 AM 53.6 °F 41.0 °F 62% 30.20 in 10.0 mi ENE 8.1 mph - N/A   Overcast
9:55 AM 53.6 °F 41.0 °F 62% 30.20 in 10.0 mi East 5.8 mph - N/A   Overcast
10:15 AM 53.6 °F 41.0 °F 62% 30.20 in 10.0 mi ESE 4.6 mph - N/A   Overcast
10:35 AM 55.4 °F 41.0 °F 58% 30.20 in 10.0 mi East 8.1 mph - N/A   Overcast
10:55 AM 55.4 °F 41.0 °F 58% 30.20 in 10.0 mi ESE 4.6 mph - N/A   Overcast
11:15 AM 57.2 °F 41.0 °F 55% 30.20 in 10.0 mi ENE 4.6 mph 9.2 mph N/A   Overcast
11:35 AM 59.0 °F 41.0 °F 51% 30.19 in 10.0 mi East 6.9 mph - N/A   Scattered Clouds
11:55 AM 59.0 °F 41.0 °F 51% 30.19 in 10.0 mi ESE 3.5 mph - N/A   Scattered Clouds
12:15 PM 60.8 °F 41.0 °F 48% 30.19 in 10.0 mi ENE 9.2 mph - N/A   Scattered Clouds
12:35 PM 60.8 °F 41.0 °F 48% 30.19 in 10.0 mi East 3.5 mph - N/A   Clear
12:55 PM 60.8 °F 39.2 °F 45% 30.19 in 10.0 mi East 3.5 mph - N/A   Clear
1:15 PM 60.8 °F 41.0 °F 48% 30.19 in 10.0 mi SSE 4.6 mph - N/A   Clear
1:35 PM 59.0 °F 37.4 °F 45% 30.19 in 10.0 mi NNW 3.5 mph - N/A   Scattered Clouds
1:55 PM 60.8 °F 41.0 °F 48% 30.18 in 10.0 mi NE 6.9 mph - N/A   Mostly Cloudy
2:15 PM 62.6 °F 41.0 °F 45% 30.18 in 10.0 mi NNE 3.5 mph - N/A   Overcast
2:35 PM 60.8 °F 41.0 °F 48% 30.18 in 10.0 mi East 5.8 mph - N/A   Overcast
2:55 PM 60.8 °F 41.0 °F 48% 30.17 in 10.0 mi ENE 4.6 mph - N/A   Scattered Clouds
3:15 PM 60.8 °F 41.0 °F 48% 30.17 in 10.0 mi ESE 6.9 mph - N/A   Scattered Clouds
3:35 PM 62.6 °F 41.0 °F 45% 30.17 in 10.0 mi ENE 3.5 mph - N/A   Scattered Clouds
3:55 PM 62.6 °F 41.0 °F 45% 30.17 in 10.0 mi East 3.5 mph - N/A   Mostly Cloudy
4:15 PM 62.6 °F 37.4 °F 39% 30.17 in 10.0 mi Calm Calm - N/A   Scattered Clouds
4:35 PM 62.6 °F 41.0 °F 45% 30.17 in 10.0 mi NE 5.8 mph - N/A   Mostly Cloudy
4:55 PM 60.8 °F 41.0 °F 48% 30.17 in 10.0 mi Calm Calm - N/A   Scattered Clouds
5:15 PM 60.8 °F 41.0 °F 48% 30.17 in 10.0 mi Calm Calm - N/A   Clear
5:35 PM 60.8 °F 41.0 °F 48% 30.17 in 3.0 mi ENE 3.5 mph - N/A   Haze
5:55 PM 60.8 °F 41.0 °F 48% 30.17 in 2.5 mi ENE 5.8 mph - N/A   Haze
6:15 PM 60.8 °F 41.0 °F 48% 30.17 in 2.5 mi Calm Calm - N/A   Haze
6:35 PM 60.8 °F 42.8 °F 52% 30.17 in 2.0 mi ENE 3.5 mph - N/A   Haze
6:55 PM 60.8 °F 42.8 °F 52% 30.17 in 2.0 mi Calm Calm - N/A   Haze
7:15 PM 59.0 °F 44.6 °F 59% 30.17 in 2.0 mi ENE 3.5 mph - N/A   Haze
7:35 PM 59.0 °F 44.6 °F 59% 30.17 in 10.0 mi East 3.5 mph - N/A   Clear
7:55 PM 57.2 °F 44.6 °F 63% 30.18 in 10.0 mi ENE 4.6 mph - N/A   Clear
8:15 PM 55.4 °F 44.6 °F 67% 30.19 in 10.0 mi Calm Calm - N/A   Clear
8:35 PM 55.4 °F 46.4 °F 72% 30.19 in 10.0 mi Calm Calm - N/A   Clear
8:55 PM 53.6 °F 46.4 °F 77% 30.20 in 10.0 mi Calm Calm - N/A   Clear
9:15 PM 53.6 °F 46.4 °F 77% 30.19 in 10.0 mi East 3.5 mph - N/A   Clear
9:35 PM 53.6 °F 46.4 °F 77% 30.20 in 10.0 mi ENE 3.5 mph - N/A   Clear
9:55 PM 51.8 °F 48.2 °F 88% 30.21 in 10.0 mi ENE 3.5 mph - N/A   Clear
10:15 PM 53.6 °F 44.6 °F 72% 30.22 in 10.0 mi ENE 4.6 mph - N/A   Clear
10:35 PM 51.8 °F 44.6 °F 76% 30.22 in 10.0 mi ENE 4.6 mph - N/A   Clear
10:55 PM 51.8 °F 44.6 °F 76% 30.22 in 10.0 mi ENE 5.8 mph - N/A   Clear
11:15 PM 51.8 °F 44.6 °F 76% 30.22 in 10.0 mi ENE 4.6 mph - N/A   Clear
11:35 PM 51.8 °F 42.8 °F 71% 30.22 in 10.0 mi NE 5.8 mph - N/A   Clear
11:55 PM 51.8 °F 42.8 °F 71% 30.22 in 10.0 mi ENE 5.8 mph - N/A   Clear